Погода в Высоконских Дворы

Россия / Курская область     51°28′40″N   36°04′07″E
темп.,
°C
ветер,
м/с
пор.,
м/с
влажн.,
%
обл.,
%
осадки,
мм/ч
давл.,
гПа
погр.,
м
13 июня, вс
вс1300:00+14з23930 0.0 100929
03:00+13зюз22930 0.0 100926
06:00+14юз249518 0.0 1008125
09:00+19ююз348258 0.0 1008510
12:00+21ю457224 1.3 1008851
15:00+22ююз577279 4.2 10081261
18:00+21ююз358273 1.1 1007831
21:00+16ююз349018 2.4 100944
14 июня, пн
пн1400:00+15ю33918 0.0 100932
03:00+14ю339213 0.0 101133
06:00+15ююв22903 0.0 101266
09:00+20юв22765 0.0 1013390
12:00+23вюв226999 1.6 1014818
15:00+24вюв22605 3.3 10141344
18:00+23ююв007037 0.4 1014375
21:00+18всв1183100 0.6 101411
15 июня, вт
вт1500:00+17ссв118687 0.0 101411
03:00+16с229010 0.1 101411
06:00+17ссв229298 0.0 101466
09:00+21ссв238261 0.0 1013394
12:00+24св33695 0.2 10121173
15:00+25св346742 1.4 10111337
18:00+22всв3484100 5.3 1010114
21:00+19всв228791 5.7 101115
16 июня, ср
ср1600:00+17зсз008789 0.0 101011
03:00+18всв0188100 1.7 101011
06:00+18с2291100 0.3 101054
09:00+21св228593 0.3 1011323
12:00+24ссв237396 2.1 1011308
15:00+18сз4792100 6.4 1013164
18:00+20ссв48855 0.2 1013342
21:00+18св35945 0.8 101580
17 июня, чт
чт1700:00+17св413955 0.1 1015331
03:00+16св614964 0.1 1016348
06:00+16св6149512 0.0 1018483
09:00+19св712800 0.0 1019589
12:00+21всв79729 0.0 10201065
15:00+22св897218 0.0 10201249
18:00+20всв711740 0.0 1021870
21:00+17всв514800 0.0 1022476